www.pogodaiklimat.ru

Погода и климат >> Архив погоды >> Албания >> Влёра


ПОГОДА во Влёре

  • Прогноз погоды во Влёре
  • Монитор погоды во Влёре

АРХИВ ПОГОДЫ во Влёре

Время (UTC), дата Ветер
(напр.,м/с)
 
Видим.   Явления Облачность Т
(С)
Тd
(С)
f
(%)
Тe
(С)
Тes
(С)
Комфортность P
(гПа)
Po
(гПа)
Тmin
(С)
Tmax
(С)
R
(мм)
R24
(мм)
S
(см)
15 15.09 ЮЗ 4 20 км ясно +29.0 +13.6 39 +31 +32 жарко 1020.2 1019.5
18 15.09 штиль 0 20 км ясно +25.0 +16.4 59 +28 +28 жарко 1019.8 1019.1 +30.4
21 15.09 штиль 0 15 км ясно +21.2 +17.0 77 +25 +25 комфорт 1020.3 1019.6
06 16.09 штиль 0 20 км ясно +16.6 +13.7 83 +16 +19 1018.8 1018.1 +15.0
09 16.09 штиль 0 20 км ясно +24.6 +15.5 57 +28 +42 душно 1018.3 1017.6
12 16.09 ЮЗ 6 20 км ясно +28.0 +18.2 55 +33 +37 очень
душно
1018.2 1017.5
15 16.09 СЗ 2 20 км ясно +27.0 +17.8 57 +31 +34 душно 1016.3 1015.6
18 16.09 СВ 4 20 км ясно +23.2 +16.9 68 +28 +28 душно 1016.0 1015.3 +28.4
21 16.09 штиль 0 12 км ясно +20.0 +17.0 83 +23 +23 комфорт 1016.6 1015.9
06 17.09 штиль 0 20 км ясно +17.6 +15.8 89 +18 +20 1015.4 1014.7 +16.0
09 17.09 СВ 4 20 км ясно +25.0 +15.0 54 +28 +35 жарко 1015.5 1014.8
12 17.09 ЮЗ 4 20 км ясно +27.2 +17.0 54 +31 +39 душно 1015.7 1015.0
15 17.09 ЮЗ 8 20 км ясно +28.6 +15.9 46 +32 +32 душно 1014.7 1014.0
18 17.09 штиль 0 20 км ясно +24.2 +14.9 56 +27 +27 жарко 1014.3 1013.6 +29.0
21 17.09 штиль 0 15 км ясно +19.4 +16.4 83 +21 +21 комфорт 1014.8 1014.1
06 18.09 штиль 0 20 км 3/3 1380 м
[Cu hum]
+17.6 +13.4 76 +18 +19 1014.3 1013.6 +16.8
09 18.09 СВ 6 20 км ясно +26.4 +13.9 46 +29 +33 жарко 1015.0 1014.3
12 18.09 ЮЗ 6 20 км 3/3 1380 м
[Cu hum]
+29.6 +15.4 42 +32 +35 душно 1014.6 1013.9
15 18.09 ЮЗ 6 20 км ясно +28.2 +12.6 38 +30 +30 жарко 1012.9 1012.2
18 18.09 штиль 0 20 км ясно +23.0 +16.8 68 +28 +28 душно 1014.3 1013.6 +30.0
21 18.09 штиль 0 12 км ясно +20.4 +17.4 83 +23 +23 комфорт 1014.9 1014.2
06 19.09 штиль 0 20 км ясно +19.0 +14.6 76 +20 +22 1011.3 1010.6 +17.4
09 19.09 ЮЗ 2 20 км ясно +27.0 +18.3 59 +32 +42 очень
душно
1014.7 1014.0
12 19.09 ЮЗ 6 20 км 4/4 1380 м
[Cu med, cong]
+28.0 +18.2 55 +33 +35 очень
душно
1014.2 1013.5
15 19.09 СЗ 28 15 км 10/10 1080 м
[Sc]
+22.0 +15.8 68 +26 +26 душно 1015.8 1015.1
18 19.09 СЗ 6 12 км {дождь} 9/9 1080 м
[Sc]
+20.2 +15.3 73 +22 +22 комфорт 1014.5 1013.8 +28.8 5
21 19.09 СВ 4 12 км в посл. час дождь 9/9 1080 м
[Sc]
+20.4 +16.3 77 +23 +23 комфорт 1014.9 1014.2
06 20.09 штиль 0 12 км {дождь} 10/10 1200 м
[Sc]
+18.2 +16.7 91 +19 +19 1015.3 1014.5 +17.0 7
09 20.09 штиль 0 15 км 5/5 1380 м
[Cu med, cong]
+22.2 +16.3 69 +26 +33 душно 1016.7 1016.0
12 20.09 СЗ 6 20 км 6/6 1300 м
[Sc]
+24.2 +12.8 49 +26 +28 жарко 1017.2 1016.5
15 20.09 СЗ 10 20 км 8/8 1380 м
[Sc]
+24.0 +9.9 41 +25 +25 комфорт 1017.2 1016.5
18 20.09 СЗ 14 20 км 6/6 1200 м
[Sc]
+21.4 +8.0 42 +22 +22 комфорт 1017.5 1016.8 +24.4
21 20.09 СВ 2 15 км 5/5 1380 м
[Sc]
+18.2 +9.5 57 +19 +19 1019.5 1018.8
06 21.09 СВ 4 20 км ясно +15.6 +10.6 72 +15 +16 1019.1 1018.4 +14.6
09 21.09 СВ 4 20 км 3/3 1380 м
[Cu med, cong]
+23.2 +11.3 47 +25 +30 комфорт 1020.5 1019.8
12 21.09 СЗ 8 20 км 3/3 1380 м
[Cu med, cong]
+26.0 +10.9 39 +27 +28 жарко 1021.1 1020.4
15 21.09 СЗ 6 20 км ясно +25.0 +10.4 40 +26 +27 жарко 1020.8 1020.1
18 21.09 штиль 0 20 км ясно +19.6 +9.5 52 +20 +20 1021.1 1020.3 +26.4
21 21.09 штиль 0 12 км ясно +17.2 +10.8 66 +17 +17 1021.8 1021.1
06 22.09 штиль 0 20 км 3/0
[Ac lent]
+13.8 +10.8 82 +13 +15 1020.6 1019.9 +12.0
09 22.09 ЮВ 4 20 км 4/0
[Ci fib]
+23.2 +13.1 53 +26 +32 жарко 1020.8 1020.0
12 22.09 ЮЗ 4 20 км 3/0
[Ci fib]
+26.0 +14.8 50 +29 +36 душно 1019.7 1019.0

 

Местоположение метеостанции Влёра (Албания): широта 40.47 долгота 19.48 высота над уровнем моря 1 м.

В архиве по умолчанию представлена погода во Влёре за последнюю неделю. Архивные данные за месяц целиком и за предыдущие месяцы, начиная с января 2011 года, Вы можете получить, выбрав интересующий диапазон дат из раскрывающегося списка и нажав кнопку "Ввод!".


*Определитесь, кто Вы:
робот инопланетянин человек

Внимание! Время в таблицах - всемирное. Для получения местного времени необходимо прибавить поправку, которая равна 1 ч.

Смотрите также архив погоды в соседних городах и на ближайших метеорологических станциях:

Погода на Сазани (Албания) (17 км)
Погода в Кучове (Албания) (51 км)
Погода в Гирокастре (Албания) (72 км)
Погода в Саранде (Албания) (79 км)
Погода в Дурресе (Албания) (92 км)
Погода в Отранто (Италия) (94 км)
Погода в Эльбасане (Албания) (96 км)
Погода в Тиране (Албания) (99 км)
Погода в Тиране Лапрака (Албания) (102 км)
Погода в Керкире (Греция) (102 км)

Пояснения к столбцам:

Ветер - указаны скорость ветра в м/с - средняя за 10 мин, порывы в срок и между сроками (в фигурных скобках) и направление, откуда дует ветер: С - северный, СВ - северо-восточный, В - восточный, ЮВ - юго-восточный, Ю - южный, ЮЗ - юго-западный, З - западный, СЗ - северо-западный.
Видимость - горизонтальная дальность видимости в метрах или километрах. При видимости от 1 до 10 км при отсутствии осадков обычно наблюдается дымка, при ухудшении видимости до 1 км и менее - туман. В сухую погоду видимость может ухудшаться дымом, пылью или мглою.
Явления - указаны атмосферные явления, наблюдавшиеся в срок или в последний час перед сроком; фигурными скобками обозначены явления, наблюдавшиеся между сроками (за 1-3 часа до срока); квадратными скобками обозначены град или гололедные отложения с указанием их диаметра в мм.
Облачность - указаны через наклонную черту общая и нижняя облачность в баллах и высота нижней границы облаков в метрах; квадратными скобками обозначены формы облаков: Ci - перистые, Cs - перисто-слоистые, Cc - перисто-кучевые, Ac - высококучевые, As - высокослоистые, Sc - слоисто-кучевые, Ns - слоисто-дождевые, Cu - кучевые, Cb - кучево-дождевые. Подробнее классификацию облаков см. в Атласе облаков (PDF).
T - Температура воздуха - температура, измеренная на высоте 2 м над землей.
Td - Температура точки росы - температура, при понижении до которой содержащийся в воздухе водяной пар достигнет насыщения.
f - Относительная влажность воздуха - влажноcть воздуха, измеренная на высоте 2 м над землей.
Te - Эффективная температура - температура, которую ощущает одетый по сезону человек в тени. Характеристика душности погоды. При расчете учитывается влияние влажности воздуха и скорости ветра на теплоощущения человека.
Tes - Эффективная температура на солнце - температура, которую ощущает человек, с поправкой на солнечный нагрев. Характеристика знойности погоды. Зависит от высоты солнца над горизонтом, облачности и скорости ветра. Ночью, в пасмурную погоду, а также при ветре 12 м/с и более поправка равна нулю.
P - Атмосферное давление - приведенное к уровню моря атмосферное давление.
Po - Атмосферное давление - измеренное на уровне метеостанции атмосферное давление.
Tmin - Минимальная температура - минимум температуры воздуха на высоте 2 м над землей.
Tmax - Максимальная температура - максимум температуры воздуха на высоте 2 м над землей.
R - Количество осадков - Количество выпавших осадков за период времени, мм. При наведении курсора мыши на число - период времени, за который выпало указанное количество осадков.
R24 - Количество осадков - Количество выпавших осадков за 24 часа, мм.
S - Снежный покров - Высота снежного покрова, см. При наведении курсора мыши на число - состояние снежного покрова и степень покрытия местности в баллах.